Flag for Argentina Weather past 2 weeks in Ushuaia, Tierra del Fuego, Argentina

Now
34 °F

Clear.


Feels Like: 31 °F
Forecast: N/A
Wind: 3 mph from Northwest

Location: Ushuaia Aerodrome

Current Time: Aug 20, 2014 at 8:24:49 PM

Latest Report: Aug 20, 2014 at 8:00 PM


Visibility: 10 mi

Pressure: 29.92 "Hg

Humidity: 87%

Dew point: 30 °F

Location of UshuaiaLocation

Historic Weather in Ushuaia — Graph

°F

Ushuaia temperature yesterday

Maximum temperature yesterday: 43 °F (at 3:00 PM)
Minimum temperature yesterday: 30 °F (at 10:00 AM)
Average temperature yesterday: 36 °F

Past Weeks' High & Low Weather Summary

 TemperatureHumidityPressure
High52 °F (Aug 14, 8:00 PM)100% (Aug 10, 10:00 AM)30.80 "Hg (Aug 10, 10:00 AM)
Low30 °F (Aug 11, 8:00 AM)44% (Aug 14, 8:00 PM)28.47 "Hg (Aug 8, 3:00 PM)
Average37 °F78%29.35 "Hg
* Reported Aug 5 8:00 PM — Aug 20 7:00 PM, Ushuaia, Weather by CustomWeather, © 2014

Note: Actual official high and low records may vary slightly from our data, if they occured in-between our weather recording intervals... More about our weather records

Advertising

Ushuaia weather history for previous 24 hours

 ConditionsComfort  
Time TempWeatherWind HumidityBarometerVisibility
7:00 PM
Aug 20
36 °FClear.5 mph81%29.89 "Hg10 mi
6:00 PM37 °FPassing clouds.3 mph81%29.89 "HgN/A
5:00 PM39 °FPassing clouds.No wind75%29.86 "HgN/A
4:00 PM37 °FPassing clouds.No wind56%29.86 "HgN/A
3:00 PM37 °FPassing clouds.3 mph56%29.86 "HgN/A
2:00 PM37 °FPassing clouds.No wind65%29.86 "HgN/A
1:00 PM36 °FPassing clouds.5 mph70%29.83 "HgN/A
12:00 PM36 °FPassing clouds.3 mph70%29.86 "HgN/A
11:00 AM34 °FPartly sunny.No wind81%29.86 "HgN/A
10:00 AM32 °FPartly sunny.No wind80%29.83 "HgN/A
9:00 AM32 °FPartly sunny.3 mph87%29.83 "HgN/A
8:00 AM32 °FPartly sunny.3 mph93%29.80 "HgN/A
7:00 AM32 °FClear.3 mph87%29.80 "Hg10 mi
6:00 AM34 °FClear.5 mph70%29.80 "Hg10 mi
5:00 AM34 °FClear.6 mph70%29.80 "Hg10 mi
4:00 AM34 °FClear.6 mph70%29.80 "Hg10 mi
3:00 AM34 °FClear.3 mph70%29.80 "Hg10 mi
2:00 AM32 °FPassing clouds.6 mph87%29.83 "HgN/A
1:00 AM34 °FPassing clouds.7 mph81%29.83 "HgN/A
12:00 AM36 °FPassing clouds.12 mph70%29.86 "HgN/A
11:00 PM
Aug 19
36 °FPassing clouds.7 mph70%29.86 "HgN/A
10:00 PM37 °FPartly cloudy.12 mph65%29.86 "HgN/A
9:00 PM36 °FPartly cloudy.9 mph70%29.86 "HgN/A
8:00 PM36 °FPartly cloudy.7 mph70%29.86 "HgN/A
Weather by CustomWeather, © 2014

See weather overviewHow to use our weather pages